Location: Salisbury
(35.6710°N, 80.4740°W)
Time: 05:21:50
(UTC-05:00)

OTV 5 (USA 277) - Visible Passes

Search period start: 24 February 2018 00:00
Search period end: 06 March 2018 00:00
Orbit: 404 x 417 km, 43.0° (Epoch: 07 September)

Date Brightness Start Highest point End Pass type
(mag) Time Alt. Az. Time Alt. Az. Time Alt. Az.
24 Feb ? 05:14:44 35° NNE 05:14:44 35° NNE 05:17:05 10° NE visible
25 Feb ? 05:58:49 16° NW 06:00:29 24° N 06:03:14 10° NE visible
26 Feb ? 05:10:07 24° NNE 05:10:07 24° NNE 05:12:09 10° NE visible
27 Feb ? 05:54:08 14° NW 05:55:59 22° N 05:58:37 10° NE visible
28 Feb ? 05:05:23 21° NNE 05:05:23 21° NNE 05:07:24 10° NE visible
01 Mar ? 05:49:24 14° NW 05:51:28 26° N 05:54:18 10° ENE visible
02 Mar ? 05:00:41 22° NNE 05:00:41 22° NNE 05:02:57 10° ENE visible
03 Mar ? 05:44:46 18° NW 05:46:52 40° NNE 05:49:59 10° E visible
04 Mar ? 04:56:09 30° NNE 04:56:09 30° NNE 04:58:41 10° E visible
05 Mar ? 05:40:23 26° WNW 05:42:07 88° NE 05:45:24 10° ESE visible
